Погода в Лукове

Украина / Волынская область     51°13′59″N   24°20′51″E
темп.,
°C
ветер,
м/с
пор.,
м/с
влажн.,
%
обл.,
%
осадки,
мм/ч
давл.,
гПа
погр.,
м
14 мая, пт
пт1400:00+12ююв3995100 0.4 1002266
03:00+11ююв41194100 0.6 1002353
06:00+9ююв389754 0.0 1002172
09:00+14ююз487832 0.0 1002632
12:00+17ю467014 0.9 10021031
15:00+16юз577556 2.3 1003771
18:00+17юз577385 0.9 1003710
21:00+12юз489054 1.1 1004159
15 мая, сб
сб1500:00+10ююз3696100 0.0 1005157
03:00+10з3798100 0.0 1006269
06:00+11зсз5997100 0.3 1007538
09:00+11зсз688981 0.3 1009523
12:00+14з5673100 0.0 1010919
15:00+15з5767100 0.1 10101052
18:00+15з456689 0.0 1010862
21:00+11юз118189 0.0 101010
16 мая, вс
вс1600:00+10ююв3385100 0.0 101022
03:00+9юв359369 0.0 101073
06:00+9юв4893100 0.0 1009139
09:00+14ююв6107552 0.0 1009553
12:00+18ююв676395 0.0 10081073
15:00+20ююв5760100 0.8 10061512
18:00+17юз4578100 2.6 1005329
21:00+12ю3599100 6.5 1006238
17 мая, пн
пн1700:00+11зюз2597100 1.6 1006129
03:00+10з4897100 1.8 1007323
06:00+10з4795100 0.0 1008267
09:00+12з34800 0.0 1009390
12:00+17з34600 0.0 10081126
15:00+19з235142 0.0 10071933
18:00+18зюз236499 0.0 1007146
21:00+13з3781100 0.4 1007140
18 мая, вт
вт1800:00+11зсз3591100 0.1 1008113
03:00+11ююз2495100 0.6 1008136
06:00+10юз3396100 0.0 100868
09:00+12зсз3586100 0.0 1009355
12:00+15сз3467100 0.0 10091061
15:00+15сз4460100 0.1 10091274
18:00+15сз3566100 0.1 1008635
21:00+11сз368023 0.2 101098